User: anonymous   Login
Location: Allentsteig
(48.6833°N, 15.3167°E)
Time: 13:23:58
(UTC+00:00)
Language:

Cosmos 2034 Rocket - Orbit

View from above orbital plane
View from above orbital plane
View from above satellite
View from above satellite

Ground track
Ground track

The orbit data is extracted from the following two-line orbital elements,

1 20150U 89059B   21135.94396972  .00000127  00000-0  11629-3 0  9992
2 20150  82.9376 114.1849 0027544 252.2076 160.3957 13.75656605596611
Epoch (UTC): 15 May 2021 22:39:18
Eccentricity: 0.0027544
inclination: 82.9376°
perigee height: 959 km
apogee height: 999 km
right ascension of ascending node: 114.1849°
argument of perigee: 252.2076°
revolutions per day: 13.75656605
mean anomaly at epoch: 160.3957°
orbit number at epoch: 59661

The dashed part of the orbit path shows where the satellite is in the earth's shadow,  

DLR